| time (UTC) | temp F | wind direction | speed MPH | gust MPH | rain 1hr in | rain 24hr in | rain mn in | humidity % | barometer mb |
| 20260505033005 | 66 | 277 | 0.0 | 6.0 | 0.00 | 0.00 | 0.00 | 63 | 1010.1 |
| 20260505031505 | 68 | 282 | 0.0 | 8.0 | 0.00 | 0.00 | 0.00 | 61 | 1009.8 |
| 20260505030004 | 69 | 268 | 2.0 | 5.0 | 0.00 | 0.00 | 0.00 | 60 | 1009.7 |
| 20260505024505 | 71 | 304 | 1.0 | 6.0 | 0.00 | 0.00 | 0.00 | 57 | 1009.6 |
| 20260505023002 | 73 | 295 | 0.0 | 0.0 | 0.00 | 0.00 | 0.00 | 61 | 1009.4 |
| 20260505021502 | 72 | 296 | 0.0 | 0.0 | 0.00 | 0.00 | 0.00 | 61 | 1009.4 |
| 20260505020001 | 73 | 279 | 0.0 | 0.0 | 0.00 | 0.00 | 0.00 | 61 | 1009.3 |
| 20260505014501 | 74 | 244 | 0.0 | 4.0 | 0.00 | 0.00 | 0.00 | 59 | 1009.2 |
| 20260505013100 | 74 | 207 | 0.0 | 1.0 | 0.00 | 0.00 | 0.00 | 60 | 1009.2 |
| 20260505011601 | 75 | 207 | 0.0 | 4.0 | 0.00 | 0.00 | 0.00 | 61 | 1009.3 |
| 20260505010059 | 75 | 213 | 0.0 | 7.0 | 0.00 | 0.00 | 0.00 | 60 | 1009.4 |
| 20260505004600 | 76 | 216 | 0.0 | 8.0 | 0.00 | 0.00 | 0.00 | 59 | 1009.5 |
| 20260505003058 | 76 | 220 | 0.0 | 8.0 | 0.00 | 0.00 | 0.00 | 59 | 1009.5 |
| 20260505001558 | 76 | 232 | 0.0 | 6.0 | 0.00 | 0.00 | 0.00 | 59 | 1009.5 |
| 20260505000059 | 77 | 198 | 0.0 | 4.0 | 0.00 | 0.00 | 0.00 | 59 | 1009.6 |
| 20260504234557 | 76 | 196 | 0.0 | 6.0 | 0.00 | 0.00 | 0.00 | 59 | 1009.7 |
| 20260504233055 | 76 | 211 | 0.0 | 6.0 | 0.00 | 0.00 | 0.00 | 58 | 1009.8 |
| 20260504231556 | 76 | 208 | 0.0 | 5.0 | 0.00 | 0.00 | 0.00 | 59 | 1009.9 |
| 20260504230053 | 75 | 229 | 0.0 | 5.0 | 0.00 | 0.00 | 0.00 | 60 | 1010.0 |
| 20260504224550 | 75 | 205 | 2.0 | 7.0 | 0.00 | 0.00 | 0.00 | 58 | 1010.2 |
| 20260504223049 | 74 | 186 | 0.0 | 6.0 | 0.00 | 0.00 | 0.00 | 63 | 1010.4 |
| 20260504221548 | 74 | 171 | 0.0 | 8.0 | 0.00 | 0.00 | 0.00 | 64 | 1010.5 |
| 20260504220048 | 74 | 219 | 0.0 | 7.0 | 0.00 | 0.00 | 0.00 | 63 | 1010.8 |
| 20260504214554 | 73 | 171 | 0.0 | 7.0 | 0.00 | 0.00 | 0.00 | 64 | 1010.8 |
| 20260504213046 | 72 | 192 | 1.0 | 5.0 | 0.00 | 0.00 | 0.00 | 63 | 1011.0 |
| 20260504211546 | 71 | 236 | 0.0 | 7.0 | 0.00 | 0.00 | 0.00 | 64 | 1011.2 |
| 20260504210057 | 70 | 221 | 0.0 | 8.0 | 0.00 | 0.00 | 0.00 | 65 | 1011.5 |
| 20260504204558 | 70 | 186 | 0.0 | 4.0 | 0.00 | 0.00 | 0.00 | 66 | 1011.7 |
| 20260504203056 | 69 | 210 | 0.0 | 4.0 | 0.00 | 0.00 | 0.00 | 67 | 1011.9 |
| 20260504201543 | 68 | 225 | 0.0 | 3.0 | 0.00 | 0.00 | 0.00 | 66 | 1012.1 |
| 20260504200044 | 67 | 214 | 0.0 | 5.0 | 0.00 | 0.00 | 0.00 | 67 | 1012.2 |
| 20260504194543 | 65 | 256 | 0.0 | 6.0 | 0.00 | 0.00 | 0.00 | 71 | 1012.3 |
| 20260504193042 | 64 | 105 | 0.0 | 3.0 | 0.00 | 0.00 | 0.00 | 72 | 1012.5 |
| 20260504191541 | 63 | 221 | 0.0 | 4.0 | 0.00 | 0.00 | 0.00 | 73 | 1012.5 |
| 20260504190042 | 62 | 169 | 0.0 | 4.0 | 0.00 | 0.00 | 0.00 | 74 | 1012.6 |
| 20260504184541 | 61 | 189 | 2.0 | 5.0 | 0.00 | 0.00 | 0.00 | 75 | 1012.8 |
| 20260504183041 | 62 | 123 | 0.0 | 6.0 | 0.00 | 0.00 | 0.00 | 76 | 1012.8 |
| 20260504181539 | 61 | 208 | 2.0 | 7.0 | 0.00 | 0.00 | 0.00 | 75 | 1012.7 |
| 20260504180040 | 61 | 194 | 0.0 | 5.0 | 0.00 | 0.00 | 0.00 | 75 | 1012.8 |
| 20260504174539 | 62 | 246 | 1.0 | 6.0 | 0.00 | 0.00 | 0.00 | 74 | 1012.9 |
| 20260504173040 | 62 | 97 | 0.0 | 4.0 | 0.00 | 0.00 | 0.00 | 75 | 1012.8 |
| 20260504171538 | 60 | 202 | 3.0 | 7.0 | 0.00 | 0.00 | 0.00 | 77 | 1012.7 |
| 20260504081519 | 72 | 297 | 0.0 | 1.0 | 0.00 | 0.00 | 0.00 | 49 | 1007.5 |
| 20260504050007 | 75 | 24 | 0.0 | 0.0 | 0.00 | 0.00 | 0.00 | 41 | 1007.2 |
| 20260504044512 | 75 | 24 | 0.0 | 0.0 | 0.00 | 0.00 | 0.00 | 40 | 1007.0 |
| 20260504043011 | 76 | 24 | 0.0 | 0.0 | 0.00 | 0.00 | 0.00 | 40 | 1007.0 |
| 20260504041518 | 78 | 24 | 0.0 | 0.0 | 0.00 | 0.00 | 0.00 | 38 | 1006.8 |
| 20260504040005 | 78 | 24 | 0.0 | 0.0 | 0.00 | 0.00 | 0.00 | 37 | 1006.7 |
| 20260504034505 | 78 | 24 | 0.0 | 0.0 | 0.00 | 0.00 | 0.00 | 37 | 1006.6 |